Weather Roundup
Issued by NWS

Home | Current Version | Previous Version | Graphics & Text | Print | Product List | Glossary Off
Versions: 1 2 3 4 5 6 7 8 9 10 11 12 13 14 15 16 17 18 19 20 21 22 23 24 25 26 27 28 29 30 31 32 33 34 35 36 37 38 39 40 41 42 43 44 45 46 47 48 49 50

096
NZUS93 KARX 202159
HRRWXR

CURRENT HOURLY OBSERVATIONS ACROSS
MUCH OF THE UPPER MISSISSIPPI VALLEY
NATIONAL WEATHER SERVICE LA CROSSE WI
400 PM CST MON FEB 20 2017


...SOUTHEAST MINNESOTA...


CITY           SKY/WX    TMP DP  RH WIND       PRES   REMARKS
ROCHESTER      LGT RAIN  50  50 100 S16       29.73S FOG
ROCHESTER/MAYO CLOUDY    51  52 100 SE12G24   29.73R
WINONA         LGT RAIN  54  52  94 S7        29.75F
AUSTIN         RAIN      54  52  94 S13       29.73R
ALBERT LEA     DRIZZLE   54  54 100 SW6       29.72S
DODGE CENTER   NOT AVBL
PRESTON        LGT RAIN  52  50  93 S14G23    29.75R
OWATONNA       LGT RAIN  54  50  87 S14G20    29.71R
FARIBAULT      LGT RAIN  52  52 100 S6        29.71R
$$

...ELSEWHERE IN MINNESOTA...


CITY           SKY/WX    TMP DP  RH WIND       PRES   REMARKS
MINNEAPOLIS    LGT RAIN  53  50  89 S10       29.68R FOG
INTNL FALLS    LGT RAIN  44  42  93 VRB3      29.57S FOG
DULUTH         RAIN      41  40  96 SE15      29.65F FOG
RED WING       LGT RAIN  52  50  93 S9        29.70S
REDWOOD FALLS  CLOUDY    54  52  93 SW8       29.64R FOG
MANKATO        LGT RAIN  53  52  96 S10       29.69R FOG
WORTHINGTON    CLOUDY    50  47  89 SW14      29.68R
FAIRMONT       LGT RAIN  55  54  96 S10       29.70S FOG
$$

...SOUTHWEST WISCONSIN...


CITY           SKY/WX    TMP DP  RH WIND       PRES   REMARKS
LA CROSSE      LGT RAIN  55  53  93 S13       29.76F FOG
PRAIRIE DU CHI RAIN      54  53  96 SE8       29.81F
BOSCOBEL       LGT RAIN  58  54  86 CALM      29.83F FOG
LONE ROCK      RAIN      58  53  84 CALM      29.86S
PLATTEVILLE    CLOUDY    56  55  96 SE12G18   29.85S
FORT MC COY    LGT RAIN  55  53  94 S13G26    29.80S
MAUSTON-NEW LI RAIN      55  52  90 E3        29.83F
VIROQUA        CLOUDY    54  53  97 SE16G22   29.80F
WIS DELLS      LGT RAIN  56  49  77 SE10      29.86S
$$

...ELSEWHERE IN WISCONSIN...


CITY           SKY/WX    TMP DP  RH WIND       PRES   REMARKS
MILWAUKEE      CLOUDY    54  42  64 SE15      29.97F
MADISON        CLOUDY    61  50  67 SE18      29.86F
GREEN BAY      CLOUDY    51  43  74 SE21G31   29.94F
EAU CLAIRE     RAIN      51  50  96 S10       29.71F FOG
BLACK RVR FLS  RAIN      54  54 100 S9        29.78S
MEDFORD        HVY RAIN  45  43  93 SE12G22   29.79F
WAUSAU         CLOUDY    47  41  80 SE14      29.83S
WIS RAPIDS     LGT RAIN  54  51  90 S9        29.85S FOG
MARSHFIELD     RAIN      47  45  93 SE9       29.79F FOG
RICE LAKE      RAIN      46  45  97 SE6       29.71F
$$

...NORTHEAST IOWA...


CITY           SKY/WX    TMP DP  RH WIND       PRES   REMARKS
WATERLOO       LGT RAIN  56  54  93 S12       29.78R FOG
DUBUQUE        RAIN      56  54  93 S10       29.85R FOG
DECORAH        CLOUDY    54  54 100 S14G22    29.76S FOG
MASON CITY     LGT RAIN  54  53  97 SW12      29.75R FOG
CHARLES CITY   LGT RAIN  55  55 100 S17G24    29.76R
OELWEIN        CLOUDY    54  54 100 S17       29.80R FOG
$$

...ELSEWHERE IN IOWA...


CITY           SKY/WX    TMP DP  RH WIND       PRES   REMARKS
DES MOINES     CLOUDY    61  58  90 SW8       29.78S
IOWA CITY      CLOUDY    61  56  83 CALM      29.84R
FORT DODGE     CLOUDY    57  54  88 S10       29.76R
MARSHALLTOWN   LGT RAIN  58  57  97 S12       29.78R FOG
CEDAR RAPIDS   LGT RAIN  58  56  93 S8        29.82R FOG
$$

...NORTHERN ILLINOIS...


CITY           SKY/WX    TMP DP  RH WIND       PRES   REMARKS
CHICAGO-OHARE  CLOUDY    68  47  46 SE22G28   29.96F
CHICAGO-MIDWAY CLOUDY    67  45  45 SE17      29.98F
MOLINE         CLOUDY    73  51  46 SE15G24   29.81F
ROCKFORD       CLOUDY    68  52  56 SE18      29.92F
PEORIA         CLOUDY    72  50  45 S16       29.90S
$$

NOTE: "FAIR" INDICATES FEW OR NO CLOUDS BELOW 12,000 FEET WITH NO
SIGNIFICANT WEATHER AND/OR OBSTRUCTIONS TO VISIBILITY. WIND
SPEEDS ARE IN MILES-PER-HOUR.




USA.gov is the U.S. government's official web portal to all federal, state and local government web resources and services.